Theta_e
311 304 300 300 301 304 304 305 305 304 305 305 307 307 307 307 307 312 315 318 322 316 315 316 315 313 314 318 325 329 330 328 328 327 327 328 329 329 330 331 332 333 336 342 344 346 346 346 347 347 347 347 348 347 346 345 345 345 346 346 344 346 347 345 343 343 342 340 339 340 339 338 340 342 339 337 337 336 337 337 339 340 341 342 343 342
304 298 299 303 304 304 305 304 304 304 304 302 300 301 301 304 304 309 314 317 321 316 312 314 313 313 314 318 323 328 328 326 327 326 326 327 328 329 330 331 332 335 340 343 343 344 345 346 346 347 347 348 344 346 346 345 345 345 344 343 343 345 345 343 344 344 342 340 339 338 337 337 337 336 335 335 336 335 336 336 337 338 339 339 340 342
299 297 303 304 305 305 305 304 304 303 302 301 299 298 297 297 303 308 315 318 319 316 309 312 312 312 314 318 323 326 326 327 329 328 327 327 327 328 330 331 333 337 339 341 342 343 344 345 346 346 345 344 345 345 345 345 343 342 341 341 342 342 343 344 345 341 340 341 341 340 338 335 334 337 338 335 338 337 334 334 336 337 337 338 338 339
297 300 303 304 305 304 304 303 302 302 300 298 298 299 298 300 305 300 310 317 318 314 308 311 312 309 313 316 319 324 325 325 327 327 327 328 328 328 330 332 333 337 339 339 341 342 344 345 345 344 345 345 345 345 343 343 341 341 343 340 340 340 341 343 346 343 340 340 338 338 337 336 335 334 338 334 334 335 334 332 334 335 336 337 337 338
299 302 305 304 304 305 303 303 304 300 299 298 299 299 298 300 305 303 308 313 313 313 314 312 307 305 309 312 315 318 323 323 323 325 325 328 329 331 333 334 335 337 339 339 340 342 343 343 342 342 344 344 342 342 342 341 340 340 339 339 339 339 339 339 342 339 339 337 334 335 334 336 334 334 332 331 330 332 335 333 332 333 335 336 336 336
299 303 307 304 305 303 302 301 301 302 298 297 298 302 302 301 308 310 313 312 308 304 311 312 298 301 303 310 313 316 317 319 321 321 323 325 328 330 331 332 336 337 340 340 340 341 343 342 341 341 340 341 342 341 341 341 340 339 339 339 338 337 337 337 338 339 338 337 333 331 329 327 327 327 328 328 328 328 329 330 332 333 333 334 334 334
300 302 305 305 304 302 302 301 301 303 297 297 300 300 301 305 310 312 311 309 301 302 310 311 302 295 301 308 312 313 314 316 319 320 322 324 327 329 330 332 335 336 338 342 342 342 341 341 340 338 338 340 340 340 341 340 339 339 338 337 336 335 336 336 336 337 337 333 333 332 330 329 327 326 327 330 331 330 330 331 330 331 332 333 332 333
302 302 302 302 303 302 300 299 300 302 298 296 299 299 309 311 311 312 312 311 303 312 310 310 303 299 298 306 313 313 313 314 315 318 320 323 326 328 330 332 334 335 339 340 340 341 341 340 338 337 338 339 340 340 340 338 337 335 335 334 334 335 336 335 335 335 336 332 332 332 332 332 327 326 327 329 330 331 333 329 330 330 330 332 332 330
301 300 302 301 301 299 298 301 302 301 300 300 300 303 305 310 311 312 312 303 302 306 301 307 308 300 299 304 312 313 311 312 314 316 319 323 326 328 330 332 333 335 338 340 339 339 339 338 337 337 337 339 339 339 338 336 335 334 333 333 332 331 332 332 335 334 334 334 329 328 327 327 331 329 329 329 330 328 330 328 328 329 330 330 330 329
300 302 301 301 299 297 300 300 301 303 300 300 302 302 304 309 311 310 305 303 305 302 297 303 305 300 294 297 309 311 311 311 314 316 320 323 325 328 330 331 333 336 338 340 340 339 338 337 337 338 339 338 339 339 339 336 334 334 333 333 331 330 329 330 329 329 329 329 330 326 325 324 324 327 326 327 326 326 327 326 327 327 328 328 328 327
299 313 308 302 299 300 300 300 302 302 304 304 302 300 301 301 301 302 299 298 299 295 299 304 306 304 294 299 308 308 310 314 314 316 320 323 326 329 330 330 332 336 338 338 338 337 336 336 337 338 337 338 338 337 335 334 333 332 331 330 329 329 328 329 328 328 327 327 327 325 325 324 324 325 325 325 325 325 325 324 325 325 326 327 326 325
298 299 301 302 307 304 303 303 304 302 303 304 301 297 298 297 300 296 294 296 297 291 296 299 306 304 297 295 305 314 316 317 316 316 319 322 325 328 329 330 332 336 337 337 335 334 335 335 336 337 337 336 336 335 334 333 333 332 330 329 328 328 328 328 327 327 326 326 326 326 325 324 325 325 325 324 324 324 324 324 323 324 324 324 324 323
295 299 299 300 317 305 302 301 298 300 301 300 298 296 295 288 291 292 294 296 295 293 295 299 305 303 301 299 305 319 318 317 319 319 320 323 326 328 328 329 332 335 337 336 334 333 334 334 334 335 335 335 335 334 334 333 331 330 329 328 327 326 327 326 326 326 326 326 325 326 327 328 327 325 325 325 324 325 325 324 323 322 322 322 321 321
293 294 297 299 301 308 302 296 294 298 293 299 297 292 291 289 288 284 283 287 286 291 297 301 306 300 299 303 315 320 323 325 326 323 323 324 327 328 327 329 331 335 336 335 334 333 333 334 334 335 334 335 334 333 333 333 332 331 330 328 327 326 327 327 325 325 325 325 326 326 326 326 327 326 325 325 324 325 325 325 324 323 322 321 321 319
288 289 295 298 296 301 302 300 297 299 294 297 297 297 295 288 287 287 285 287 287 291 295 301 301 294 298 300 321 323 325 327 327 326 327 328 328 327 328 330 332 334 335 335 333 333 333 334 334 334 335 334 333 332 333 332 331 330 329 328 326 325 325 325 324 324 324 324 325 326 327 327 327 326 327 327 326 324 323 323 323 323 322 321 321 319
292 291 294 299 301 301 301 303 302 299 299 297 297 298 296 295 294 293 289 287 288 293 296 300 298 305 302 314 325 325 326 326 327 327 327 326 326 327 327 328 330 332 333 334 333 333 333 334 334 334 335 333 332 332 332 332 330 329 328 327 327 326 326 326 325 324 324 324 324 324 324 326 328 328 325 325 324 323 323 322 321 321 322 321 318 316
292 290 295 298 301 302 304 304 305 302 295 297 299 296 298 299 298 293 299 296 293 289 294 299 303 308 313 313 321 323 324 325 326 325 325 325 326 327 327 328 330 331 332 333 333 332 333 333 334 335 334 333 332 331 331 331 330 330 329 328 327 326 325 325 325 325 324 323 323 322 323 323 323 322 321 320 320 320 321 322 321 320 322 321 318 315
291 291 294 298 300 301 302 304 304 303 303 297 295 297 300 301 297 296 291 287 286 286 287 301 301 302 300 299 317 320 321 323 325 326 325 325 326 326 327 328 330 331 332 334 333 332 332 333 334 334 334 333 332 331 331 331 331 330 330 328 326 325 323 325 326 325 324 323 322 322 321 322 322 321 321 321 320 320 319 318 319 319 318 316 315 314
297 292 293 295 298 299 300 303 301 302 303 303 300 301 300 294 294 291 290 287 286 285 289 294 303 304 302 301 312 314 318 321 323 325 325 325 326 326 327 329 330 332 333 332 331 332 331 333 334 333 333 334 334 334 332 332 331 331 330 329 326 324 326 326 325 324 323 323 322 322 321 320 320 320 319 319 320 319 318 317 317 317 316 315 314 313
298 292 292 296 298 300 297 298 293 294 299 301 302 300 300 296 291 292 292 290 289 285 290 290 296 297 304 305 313 316 319 321 323 324 325 326 327 327 328 329 330 331 331 331 331 331 331 333 334 334 333 332 332 332 332 333 333 332 332 330 328 327 326 324 323 323 320 321 321 320 320 320 321 322 319 318 317 316 317 317 316 316 314 314 314 312
296 295 288 292 296 298 296 297 294 294 295 296 297 294 297 300 298 295 293 293 292 288 289 289 289 296 302 310 316 318 320 322 324 324 325 327 328 329 329 329 330 331 331 331 331 330 332 332 334 334 332 332 333 334 333 333 331 329 328 328 326 324 323 321 321 320 320 320 320 320 318 318 318 318 318 318 317 316 315 317 317 315 315 313 312 311
296 296 290 291 295 294 294 296 298 296 296 293 295 294 296 293 295 292 290 295 297 295 291 291 290 296 303 321 320 319 321 324 326 326 326 327 328 329 330 330 331 330 331 331 331 332 331 331 332 332 332 332 331 332 331 331 328 327 326 325 324 323 322 320 319 320 319 319 318 318 318 318 318 317 316 316 316 316 315 314 314 315 313 311 313 312
298 292 293 291 292 294 297 298 300 298 299 298 298 295 296 294 295 290 287 292 301 302 304 297 295 297 309 319 321 322 323 325 326 328 327 328 329 330 330 330 331 331 331 331 331 331 329 330 330 330 331 330 330 331 330 327 325 324 324 324 323 322 321 320 319 319 319 318 317 317 317 317 316 316 315 315 315 315 315 314 314 315 311 311 311 314
316 295 293 293 292 296 298 297 300 301 301 302 300 298 296 296 296 296 289 295 299 300 299 296 294 297 309 320 321 322 324 325 327 328 327 328 329 329 328 328 329 329 331 331 330 328 328 329 330 330 329 327 327 327 325 324 323 323 322 321 321 321 320 320 319 319 318 317 316 316 316 315 316 316 315 315 314 314 314 315 314 315 312 313 312 311
297 293 292 291 286 288 292 293 296 298 302 300 302 302 298 299 301 298 303 302 300 300 300 297 291 295 307 323 322 322 323 323 324 327 328 327 329 328 328 328 329 328 328 329 327 327 327 328 328 326 324 323 322 322 321 321 321 321 321 321 320 319 320 320 320 317 316 316 315 315 315 314 315 315 315 314 314 314 314 315 316 317 313 312 312 312
298 294 293 287 287 286 287 285 288 294 298 299 302 307 308 305 305 303 301 300 291 300 300 295 293 297 311 321 322 323 323 323 325 327 329 329 328 328 328 328 326 327 328 327 326 326 325 324 322 322 321 322 321 320 321 321 320 320 320 320 320 320 320 319 318 317 316 315 314 314 314 314 315 315 315 315 314 314 314 315 314 314 315 315 311 312
296 297 294 289 289 287 287 289 293 303 302 303 304 304 305 306 304 302 298 297 295 298 301 300 298 304 313 318 319 320 322 322 322 325 325 327 329 329 329 327 326 327 327 326 326 326 323 320 320 321 321 321 321 321 320 320 319 319 320 320 320 321 320 319 318 317 315 315 314 313 313 313 313 314 314 314 314 315 314 314 314 314 314 316 312 311
295 296 294 293 294 293 293 295 296 305 303 304 304 304 305 305 306 303 298 295 301 304 295 300 305 310 313 318 320 320 321 322 323 324 325 327 328 328 328 328 329 328 327 326 325 323 321 320 320 319 319 319 320 320 320 320 320 319 319 319 320 321 320 320 318 316 315 315 314 313 313 313 313 313 314 315 315 315 315 313 313 314 318 317 313 312
295 293 296 300 302 304 299 294 299 307 306 306 307 307 306 308 305 302 305 304 300 295 294 299 309 309 311 318 321 322 322 322 323 324 326 328 329 328 328 327 326 326 326 325 324 322 320 319 319 319 319 319 319 319 320 320 320 321 321 321 321 320 319 319 317 316 315 315 314 314 315 316 317 316 316 315 314 315 314 314 314 314 314 315 316 319
295 293 299 302 304 306 307 308 309 309 309 311 312 312 312 310 308 307 307 312 311 305 308 305 310 310 313 318 322 323 324 323 324 326 328 328 327 328 327 326 325 325 325 324 323 322 320 320 320 319 319 318 318 319 319 319 319 320 320 320 319 319 319 318 317 316 315 314 314 316 316 317 318 313 314 314 313 313 313 314 316 316 314 313 314 314
298 299 311 297 299 303 306 310 310 309 310 309 311 312 312 312 313 313 313 314 315 312 312 312 311 309 314 319 321 322 323 324 325 325 326 327 327 327 325 324 324 324 324 324 324 324 322 320 319 319 318 318 318 318 318 319 319 319 319 318 318 318 319 318 316 316 315 315 315 315 315 315 314 314 314 314 314 314 313 314 315 314 314 313 313 314
297 298 297 299 297 300 305 306 308 310 310 308 307 308 307 310 309 311 311 314 311 308 310 309 308 308 315 322 322 322 322 322 322 325 326 326 327 326 324 324 323 323 324 324 325 323 320 318 318 318 318 318 318 318 318 318 317 317 317 317 317 318 318 317 317 316 316 316 316 315 315 315 315 314 314 314 314 314 315 314 313 313 313 314 314 318
295 295 299 299 298 298 303 303 303 301 303 302 303 305 308 309 311 313 313 316 315 315 309 305 305 310 319 323 321 321 322 322 324 326 326 327 328 327 325 324 324 324 325 325 325 323 319 318 318 318 318 318 318 318 318 317 316 316 316 316 317 318 316 316 316 315 316 316 317 316 316 316 315 314 315 315 315 317 316 314 314 313 314 314 317 318
298 296 296 295 297 299 303 301 302 295 292 295 303 309 312 312 312 311 311 314 315 314 311 311 313 319 321 321 321 320 321 322 325 328 330 328 327 327 326 325 325 325 326 326 326 324 320 319 319 319 318 318 318 319 318 319 316 316 318 318 316 315 315 316 315 316 316 316 316 316 316 316 317 315 316 316 316 315 315 315 314 313 314 317 315 314
301 295 293 295 299 299 299 298 296 292 291 301 311 318 314 313 316 314 314 315 316 316 317 318 320 321 321 321 322 323 325 327 330 329 330 330 330 328 326 325 325 326 326 326 325 321 319 319 318 318 317 317 318 317 316 316 316 314 313 314 314 315 315 314 314 314 315 316 315 315 316 316 316 316 316 316 316 316 315 314 314 313 317 319 314 313
297 300 300 297 296 297 298 293 289 289 300 309 315 319 321 320 318 313 311 314 316 317 318 317 320 321 322 323 324 326 327 328 329 329 330 331 331 329 327 326 326 326 325 326 323 319 319 318 317 317 317 321 318 315 315 314 314 313 312 314 315 314 314 314 313 314 315 316 316 315 315 316 316 318 316 315 315 315 314 314 313 314 315 321 314 314
301 301 301 298 299 296 295 292 296 302 306 310 311 314 315 310 312 306 301 307 315 317 318 319 320 322 323 324 325 326 328 328 325 324 329 330 330 331 330 329 328 328 328 326 322 320 320 319 318 318 320 317 315 314 313 313 313 313 313 313 313 314 313 313 314 315 319 317 315 317 315 315 316 317 315 314 314 314 313 314 314 314 320 318 313 312
304 304 302 300 298 299 298 293 294 292 294 300 307 314 317 317 315 311 310 307 315 319 321 321 320 322 323 325 325 326 326 322 318 319 325 328 329 328 330 329 329 329 328 323 321 320 320 319 319 321 317 314 313 313 313 313 313 313 313 313 312 313 312 313 314 316 319 315 317 318 316 315 316 319 317 314 314 313 313 313 313 313 320 318 315 313
307 303 301 302 297 298 296 293 290 294 295 303 309 314 316 316 319 314 303 299 309 320 321 321 320 323 324 324 325 325 320 315 316 320 325 326 325 327 327 328 328 327 323 321 320 318 317 317 318 319 315 313 312 312 313 312 312 313 313 314 312 312 312 312 313 314 316 316 316 317 315 316 316 315 317 314 314 314 314 314 314 318 316 313 313 315
304 303 302 301 299 298 295 293 293 296 300 310 309 311 314 318 310 305 295 295 305 321 322 322 321 322 324 326 326 322 317 313 316 321 327 327 327 329 327 326 324 322 320 321 321 320 319 321 318 313 312 311 312 313 312 312 312 315 313 313 311 311 312 313 315 314 313 313 315 317 317 317 322 319 316 314 314 314 314 317 318 316 314 314 313 314
300 301 300 300 298 301 302 295 297 301 310 316 317 317 317 312 307 296 293 301 312 322 322 322 322 324 325 325 325 319 317 318 323 326 328 328 327 326 325 325 323 321 320 320 320 324 318 317 314 312 312 312 313 313 313 313 314 315 315 312 310 312 313 313 313 312 312 312 314 314 315 315 318 320 319 316 315 315 320 320 317 316 314 314 313 312
300 299 301 300 300 299 294 296 297 298 307 314 319 319 318 311 299 295 302 308 322 322 323 323 323 324 325 325 322 317 319 325 328 327 326 326 324 321 320 320 321 322 322 322 323 320 316 313 311 311 312 312 313 313 313 313 315 314 315 310 310 313 313 312 313 315 313 313 313 315 316 316 316 317 317 318 317 315 313 313 314 316 315 314 313 312
301 298 298 298 299 300 297 297 296 294 310 320 319 316 316 306 304 304 316 322 325 323 323 323 324 324 325 321 321 322 325 325 326 325 325 324 321 319 318 320 319 317 318 319 318 318 315 311 311 312 312 313 313 313 313 314 315 316 316 310 313 313 312 313 313 314 312 315 314 318 320 317 317 322 321 320 321 315 313 312 312 314 317 316 314 313
306 300 298 298 301 297 296 295 296 302 308 318 318 310 313 314 313 319 323 320 323 324 323 323 323 325 324 322 323 324 325 325 324 323 323 322 321 319 319 319 318 318 318 317 316 316 316 311 312 312 313 313 314 313 313 315 316 317 313 310 313 313 317 317 314 314 314 320 320 316 317 320 322 319 316 317 319 319 317 315 313 314 315 315 314 313
308 305 303 300 304 302 300 301 308 314 318 319 320 320 322 324 325 325 325 324 323 323 325 324 323 323 324 324 324 324 324 324 322 323 321 320 319 317 316 316 317 317 316 314 314 318 314 312 312 312 312 312 313 313 314 315 316 320 314 311 315 319 318 316 316 315 316 314 313 316 316 315 314 314 315 314 314 314 316 315 315 313 313 313 312 312
314 314 311 312 310 314 314 316 318 316 316 319 322 323 323 323 324 326 326 324 324 325 325 323 324 324 324 325 324 324 324 323 321 321 320 318 317 317 318 317 316 315 314 314 315 315 314 313 313 312 312 312 313 313 318 314 316 320 317 314 320 317 316 316 316 317 317 315 315 314 314 314 313 313 313 313 314 316 316 314 316 315 314 314 312 312
311 316 311 308 310 305 302 311 313 314 315 317 319 321 322 323 323 325 325 325 324 324 324 326 325 325 325 325 325 324 323 322 320 319 318 317 316 316 316 315 314 314 314 313 315 318 313 313 312 312 314 313 314 314 316 314 316 318 318 317 318 316 315 317 317 320 320 318 316 315 314 313 312 312 313 313 313 312 314 316 315 314 318 317 315 313
311 317 311 311 307 303 305 311 313 314 315 314 314 319 320 320 322 322 324 325 325 326 326 326 326 325 326 324 325 324 322 321 319 317 317 316 316 315 315 314 313 313 313 314 317 315 313 312 312 313 314 314 314 314 316 314 316 318 318 318 318 315 317 323 321 317 315 314 314 318 316 313 319 322 318 318 316 315 314 314 314 313 314 314 314 312
313 317 309 309 305 309 311 312 312 315 315 314 315 316 318 321 322 323 324 325 325 325 325 326 327 326 325 325 325 324 321 320 319 318 316 316 315 315 314 313 313 312 312 314 315 316 312 313 314 315 315 315 314 314 315 314 315 315 314 315 315 313 318 320 323 325 314 311 310 312 322 319 319 318 316 315 316 315 315 314 314 313 314 314 314 313
313 308 311 309 306 305 307 309 312 310 310 313 315 316 319 321 323 322 323 324 324 324 324 323 324 326 326 326 325 324 321 319 318 318 316 316 315 315 313 313 312 311 312 314 316 314 315 317 315 315 316 315 313 313 315 314 314 315 315 314 314 314 317 324 320 310 308 312 312 312 316 323 320 318 320 317 315 314 314 321 318 315 316 316 324 322
313 311 309 306 305 306 310 313 313 312 311 311 313 316 320 323 324 323 322 323 324 324 324 323 321 322 324 325 326 323 321 319 318 317 316 316 315 315 313 312 311 311 312 314 313 311 314 315 317 316 317 315 314 314 317 315 314 313 314 313 313 314 316 320 319 318 314 319 319 319 320 318 316 314 312 312 312 312 315 315 317 307 308 314 322 316
Wind_Speed
0 2 5 5 7 7 5 7 8 6 9 4 2 2 8 8 7 0 3 6 12 7 11 12 8 4 7 7 9 8 6 5 6 7 6 6 5 5 4 4 4 3 2 3 5 5 5 5 4 4 4 4 4 3 4 4 3 4 3 4 4 4 3 4 5 3 4 5 4 6 6 5 5 5 5 6 6 6 5 6 6 6 6 6 7 6
4 3 6 8 7 8 11 7 3 1 2 4 4 4 9 6 10 5 8 9 12 11 6 4 5 7 7 4 5 5 8 11 12 10 9 9 7 5 6 5 5 4 4 6 6 5 5 5 5 5 4 4 5 2 3 4 4 4 5 5 3 4 5 4 4 4 4 3 5 6 5 6 5 5 6 6 6 6 6 7 7 6 6 7 7 6
1 5 10 3 6 4 5 4 4 5 3 3 4 5 5 5 5 2 1 10 11 6 4 4 8 9 5 3 1 9 13 10 11 12 11 8 7 6 5 7 6 6 6 6 6 5 4 6 6 5 4 3 3 4 3 3 5 5 5 4 4 4 5 4 4 5 5 4 4 5 4 5 5 4 5 5 4 5 7 7 7 7 7 7 7 7
4 8 7 7 4 4 1 4 4 3 1 2 1 2 8 2 3 1 3 4 6 4 5 5 7 4 5 2 4 6 8 4 7 9 8 7 8 9 6 5 6 7 9 9 8 8 7 6 6 4 4 3 4 3 4 4 5 4 5 4 5 5 5 5 6 7 7 8 8 7 7 6 6 5 3 5 6 7 8 8 7 7 6 7 7 7
10 4 1 7 4 2 2 1 1 3 6 1 3 4 6 3 2 4 4 3 3 4 5 7 3 4 2 5 5 5 5 4 4 4 5 5 6 2 3 5 6 8 8 10 9 7 7 7 5 5 4 3 4 4 4 4 4 4 5 5 6 6 6 5 6 6 6 7 7 5 5 4 4 5 6 6 7 6 6 6 7 6 6 7 7 7
12 6 2 5 3 3 2 4 1 2 4 3 5 7 9 5 6 7 11 11 4 1 3 9 2 4 4 7 10 3 3 7 4 6 8 7 6 4 4 5 6 6 6 9 10 8 7 6 5 5 4 4 4 5 4 4 5 5 6 6 6 6 6 6 6 5 5 5 5 5 6 6 6 7 6 7 5 6 6 5 3 6 7 7 7 7
7 3 2 2 2 1 1 1 2 2 1 2 6 4 5 1 9 13 11 8 4 6 9 4 7 5 3 6 9 7 5 6 3 8 8 6 7 7 5 5 7 8 8 7 8 8 7 7 6 5 5 4 6 5 5 5 6 6 6 6 7 6 6 5 6 5 6 8 7 8 7 6 6 6 4 3 4 4 4 4 7 6 7 7 7 7
1 1 3 2 0 2 2 6 2 6 4 2 2 3 5 8 12 15 15 10 3 1 2 3 3 3 4 8 9 4 4 5 6 6 7 8 8 8 5 6 7 8 9 9 9 8 8 7 7 7 5 4 6 6 6 6 6 7 7 8 7 6 6 5 6 7 6 7 6 7 7 6 6 6 5 5 5 4 4 7 6 6 6 7 7 7
1 2 1 3 3 1 5 3 2 4 3 4 3 3 3 7 8 12 10 4 1 6 0 5 0 1 4 7 4 5 4 9 10 7 8 9 9 7 6 7 7 8 9 9 9 9 8 7 6 6 6 6 7 6 7 6 6 6 7 8 8 8 7 6 7 7 7 7 7 7 6 7 5 5 5 4 5 6 5 7 6 6 6 7 8 8
2 6 4 3 3 3 5 3 6 8 0 5 2 6 5 6 5 4 3 4 1 1 4 8 5 4 6 5 0 2 1 8 14 10 10 11 10 7 8 7 8 7 8 8 9 9 7 6 6 6 7 7 7 6 7 6 6 6 7 8 9 8 6 6 8 8 8 8 7 8 7 8 6 5 5 6 7 6 5 7 6 6 6 5 6 7
5 2 5 3 3 4 4 5 6 6 7 2 3 5 7 9 5 3 6 3 3 1 7 4 9 5 2 6 7 8 9 8 2 3 5 5 5 7 8 10 9 10 9 8 9 8 7 5 7 7 8 8 8 6 7 7 7 7 7 8 10 7 6 7 8 8 8 7 7 7 7 7 7 6 7 7 7 6 7 6 5 5 5 5 5 5
5 4 1 3 4 2 2 3 1 1 0 2 0 3 5 5 5 6 4 4 1 5 6 2 9 4 4 5 5 6 1 5 6 6 10 10 11 10 10 9 10 10 9 10 9 8 8 8 7 8 9 9 8 7 7 7 7 8 7 8 10 8 7 6 6 8 7 7 7 7 8 8 6 7 6 7 6 5 6 5 5 5 6 5 5 6
4 8 2 5 3 9 2 1 5 1 1 3 3 4 1 3 3 0 1 1 5 7 2 2 6 2 9 8 2 2 7 3 2 6 11 13 11 11 10 10 9 9 10 10 9 9 8 9 10 9 9 9 8 8 9 6 8 7 7 8 10 7 6 6 6 8 7 7 7 8 8 6 6 7 6 6 6 4 5 4 5 6 5 5 6 6
7 4 4 6 4 4 5 4 1 2 1 5 3 3 4 1 1 2 3 1 4 4 4 1 7 3 4 7 0 4 4 6 5 3 3 6 11 11 10 9 10 8 8 9 9 9 8 9 9 10 9 8 8 9 8 7 8 6 6 7 9 7 6 6 7 7 8 7 7 7 6 5 6 6 5 5 5 5 4 4 5 5 5 5 5 6
1 4 7 2 3 2 6 7 8 5 3 6 3 7 6 6 3 3 3 4 6 5 2 3 3 5 2 3 2 5 5 7 4 3 3 7 8 7 7 9 9 9 8 8 9 9 9 10 11 10 10 8 9 10 7 7 8 7 7 7 8 8 6 7 7 6 8 7 7 6 5 5 5 5 5 5 5 5 5 5 5 5 5 5 5 5
5 6 8 6 2 4 7 4 4 4 1 1 3 6 5 5 7 4 6 4 1 2 2 1 4 1 4 1 2 1 3 5 2 6 9 9 9 10 9 11 10 8 8 7 10 10 10 11 11 10 9 9 10 10 7 9 8 8 7 7 8 8 7 7 7 6 6 6 6 6 6 5 5 5 5 5 5 5 5 5 5 6 6 5 5 5
1 3 3 7 2 5 6 5 2 5 2 2 2 3 6 3 6 5 2 1 3 4 2 0 7 4 7 2 4 4 6 5 4 6 9 9 10 10 9 9 9 8 9 8 9 10 11 11 11 11 10 11 11 9 9 8 9 9 8 8 9 8 8 8 7 6 5 6 7 6 5 5 6 7 6 6 6 6 5 6 6 5 5 5 5 4
3 6 4 2 4 5 2 4 2 4 4 5 1 7 1 2 4 3 3 2 3 3 3 1 4 7 3 4 2 3 4 3 5 6 8 10 10 9 8 8 9 9 9 8 8 9 11 11 11 10 10 11 10 9 9 9 7 7 7 9 10 9 9 8 7 5 5 6 6 6 7 6 5 5 6 6 6 5 6 6 6 5 6 6 5 5
3 5 6 4 4 6 3 3 2 3 0 7 6 4 2 2 2 3 3 1 1 2 2 2 2 5 6 6 3 2 4 6 6 7 9 9 9 9 9 9 9 9 9 9 9 8 10 10 9 11 11 9 8 7 7 7 7 6 6 8 9 10 8 7 5 4 4 5 5 4 5 6 6 6 7 6 6 7 7 7 6 6 5 5 5 5
0 2 7 2 2 0 1 2 4 4 2 3 3 2 0 2 2 3 4 3 4 3 1 4 2 5 4 4 6 6 8 7 8 8 9 9 9 8 9 10 10 9 9 8 9 8 9 11 11 12 11 10 9 8 7 8 7 8 8 9 9 8 7 7 6 5 6 4 5 5 5 6 6 6 7 7 7 7 7 6 6 6 6 5 4 5
3 1 3 4 3 2 1 1 6 6 4 1 1 2 1 0 2 5 2 1 3 5 4 1 3 6 6 5 5 8 9 8 8 8 7 8 9 9 8 8 8 8 8 8 8 9 11 11 9 8 10 11 9 8 7 7 7 8 8 10 10 9 7 6 5 6 5 5 5 6 7 6 7 7 6 7 7 6 6 6 6 6 4 4 5 5
2 1 5 3 3 4 7 5 6 6 5 5 7 6 7 5 3 2 3 1 2 5 4 4 6 7 7 1 3 3 2 6 7 9 9 9 9 8 7 8 8 6 7 8 8 8 9 12 11 10 9 9 7 9 9 7 8 9 10 9 9 7 6 6 4 5 5 5 5 7 6 6 5 6 6 7 6 7 6 6 5 4 4 6 4 4
5 3 2 5 5 6 9 6 1 3 2 2 4 3 5 3 5 4 4 5 3 1 3 3 1 4 1 1 2 3 5 7 7 9 8 8 8 6 6 7 7 7 7 8 8 8 8 10 10 10 11 9 8 8 10 8 9 9 10 10 8 7 5 4 5 5 5 5 6 6 5 5 5 5 7 7 6 7 6 5 5 3 5 4 4 4
4 2 1 4 7 8 7 4 2 3 3 1 1 2 4 4 6 8 6 7 7 2 2 2 1 6 2 1 3 3 5 7 6 6 7 7 6 6 7 7 8 7 7 8 8 9 8 11 11 11 9 7 7 10 9 8 9 9 8 7 7 7 6 5 5 5 5 6 6 5 5 5 5 6 6 7 6 7 5 4 4 3 4 3 4 5
4 3 5 1 2 6 6 4 3 3 3 1 1 1 1 2 6 3 6 2 5 6 5 7 3 4 1 3 3 2 6 7 7 7 6 6 6 6 7 7 7 8 7 9 10 9 11 11 12 10 9 7 7 8 9 9 9 9 9 8 7 6 5 4 4 5 6 6 6 5 5 5 5 6 6 7 6 6 5 4 4 3 3 3 5 4
2 3 5 3 3 1 1 1 1 1 4 1 1 0 1 4 11 6 3 0 3 2 4 2 4 5 2 1 5 6 7 8 7 9 8 6 7 7 7 9 10 8 9 10 11 10 9 9 10 9 9 9 9 9 9 8 9 8 7 7 6 7 5 5 4 5 6 5 6 5 5 5 5 6 6 6 6 5 3 3 4 3 2 3 4 5
2 0 2 7 7 7 4 4 3 1 1 0 1 3 2 1 2 5 5 5 5 5 7 6 3 2 1 6 6 6 8 10 10 9 8 8 8 7 8 10 10 9 9 11 10 9 11 11 11 11 10 10 10 9 8 9 9 8 7 7 6 6 5 5 5 5 6 5 5 4 4 5 5 5 5 5 5 3 3 4 4 4 4 3 4 4
3 1 1 4 3 4 5 2 2 2 1 0 1 1 2 2 1 3 6 3 6 11 1 4 3 6 7 9 8 8 8 8 7 8 9 8 8 7 9 11 12 9 10 9 11 10 11 11 11 11 11 10 9 9 9 8 8 8 7 7 6 5 5 4 5 5 5 5 4 4 5 4 4 4 4 3 3 3 4 5 4 4 3 3 4 4
3 2 0 2 4 4 1 3 3 2 2 2 3 3 2 2 3 2 1 4 3 4 3 3 8 4 1 4 7 7 8 9 8 9 8 9 9 10 10 11 10 11 11 10 11 10 11 11 10 10 10 10 11 11 9 8 7 6 5 6 5 5 5 5 6 5 5 4 4 4 4 4 3 3 3 3 3 3 4 4 3 3 4 3 3 3
5 3 0 2 3 8 9 6 4 5 2 5 6 4 3 5 5 6 5 2 5 2 2 2 4 5 1 3 8 8 8 9 9 8 9 9 11 11 10 11 10 11 11 11 10 10 9 10 11 10 10 10 11 10 8 7 7 6 7 6 5 5 4 5 5 5 4 4 4 3 3 4 3 3 3 3 2 2 3 4 4 4 4 3 3 3
4 1 3 1 4 5 8 9 7 2 5 5 4 5 5 4 7 4 3 2 3 5 5 6 5 4 3 2 7 6 9 8 9 11 10 10 12 11 11 11 10 11 11 12 10 10 11 10 10 10 10 10 9 8 8 6 6 6 6 6 5 5 4 4 5 4 4 4 3 3 2 3 3 3 4 2 2 3 4 5 4 4 4 4 4 4
6 1 2 2 4 3 4 7 4 5 8 7 4 6 7 6 5 3 2 1 1 2 3 5 3 1 1 6 8 9 10 10 12 11 9 9 11 11 11 10 11 11 11 11 11 11 12 11 10 11 11 9 8 8 7 6 6 6 6 6 6 5 4 4 4 4 4 4 4 3 3 2 3 3 3 3 3 4 4 3 4 4 4 4 5 4
1 5 3 2 6 0 1 3 7 6 6 5 2 3 2 1 0 1 1 2 1 5 5 3 3 3 8 8 10 8 10 9 10 11 10 11 10 11 11 11 11 11 11 12 12 11 12 11 11 11 9 8 7 7 7 7 7 6 6 6 5 5 5 5 4 4 3 3 3 3 3 2 2 2 2 2 2 3 3 3 3 4 4 4 3 3
2 6 3 1 5 3 2 7 4 3 1 3 2 2 2 0 3 1 0 1 2 2 1 1 2 7 9 9 11 12 12 10 9 7 6 9 11 10 11 10 11 11 11 11 11 12 11 9 8 9 10 9 7 7 6 6 6 5 4 5 4 6 5 6 4 4 2 2 2 3 3 3 2 2 1 1 1 1 2 2 3 3 3 2 3 3
4 4 3 0 7 3 2 5 4 1 4 3 6 5 4 2 6 7 3 1 1 2 5 6 7 9 5 2 5 8 8 9 7 9 8 8 8 8 11 11 11 11 10 11 10 11 11 11 10 9 8 7 7 7 7 5 6 5 5 5 6 4 5 5 6 4 3 3 2 2 3 3 3 2 1 1 2 2 1 2 3 3 3 3 3 4
7 7 4 4 3 3 2 2 2 3 4 6 4 3 2 7 6 7 4 1 2 5 7 6 7 6 6 8 8 7 10 11 9 6 7 8 8 9 10 10 10 11 11 11 12 12 11 12 13 12 9 6 7 6 6 6 5 6 4 3 6 4 4 5 5 4 3 3 3 3 3 3 3 3 2 3 2 1 0 2 2 3 3 2 3 2
9 6 6 3 1 5 4 3 3 4 4 1 1 2 5 3 5 2 1 3 4 4 5 9 9 8 9 9 10 10 10 10 9 6 5 7 8 9 11 10 11 11 11 11 13 12 12 12 11 9 7 7 7 7 6 6 5 6 6 5 4 5 4 4 4 3 2 3 2 2 1 1 3 3 2 2 1 1 2 3 4 4 2 4 3 3
1 3 5 8 1 5 6 3 2 3 2 7 7 4 1 1 3 2 3 2 1 3 5 11 11 12 11 11 11 11 9 10 6 3 5 9 11 11 9 11 11 11 11 11 11 12 12 10 9 8 8 8 7 7 6 6 7 7 6 5 4 5 4 3 4 3 2 2 2 1 2 2 1 2 2 2 2 2 3 3 3 3 1 2 4 5
5 4 4 8 5 4 3 5 3 5 7 6 7 5 2 2 4 3 3 4 3 8 7 9 12 10 13 14 12 10 7 6 5 4 6 9 10 11 11 11 11 11 11 12 13 13 11 10 9 8 8 8 8 6 6 7 7 7 6 4 4 4 4 4 3 3 3 4 3 2 1 2 2 2 3 3 3 2 3 3 3 3 2 2 2 4
6 3 3 7 4 2 7 4 4 4 1 1 4 3 2 4 4 3 2 2 4 9 9 10 13 12 10 10 12 8 9 7 7 7 9 9 10 11 11 11 12 12 11 12 11 12 10 9 9 9 9 9 8 7 7 7 7 7 5 4 4 4 4 4 4 4 4 3 2 2 2 2 2 3 3 4 4 3 4 3 3 4 4 4 2 3
4 2 4 8 6 3 6 0 2 3 3 3 4 2 3 3 4 3 3 3 5 9 10 10 11 12 12 12 10 8 1 1 4 12 11 11 11 9 9 10 12 13 13 15 13 11 8 8 9 10 9 7 8 7 6 6 7 6 5 5 4 5 5 4 3 3 3 2 2 1 1 2 3 3 4 4 4 3 3 3 4 4 4 5 4 4
0 1 0 3 5 6 4 5 5 4 6 3 0 5 3 2 2 2 4 1 10 10 9 9 11 10 11 12 5 3 5 7 13 11 12 11 12 11 11 12 11 9 9 10 13 10 8 8 7 6 6 7 8 8 6 6 6 5 5 5 5 5 4 4 4 3 3 3 1 1 2 2 3 2 4 3 3 4 5 4 2 3 4 4 4 5
1 1 1 2 1 2 3 4 1 1 0 3 7 3 1 2 3 3 2 3 5 10 11 8 10 9 9 7 6 9 10 10 12 12 12 12 12 12 12 12 12 12 12 12 9 8 9 9 8 8 8 6 7 7 6 7 7 5 4 5 6 4 4 4 4 4 4 3 3 2 2 3 3 3 2 2 2 3 4 4 4 4 4 4 5 5
1 2 1 2 4 4 2 3 2 2 1 2 1 2 3 2 3 8 6 6 4 8 9 8 4 8 8 11 11 11 12 13 10 11 12 11 11 11 12 11 11 10 10 9 9 9 9 8 7 7 6 6 6 7 6 8 7 5 5 6 5 3 3 3 4 3 3 2 2 3 3 2 2 3 3 2 1 2 3 5 4 4 4 4 4 5
3 0 4 1 2 1 1 1 2 3 3 2 1 0 0 0 3 3 5 11 11 5 5 9 9 7 9 11 12 13 11 10 11 12 12 12 12 12 12 12 12 12 11 10 10 8 9 9 9 7 6 5 6 6 6 5 8 5 6 5 3 4 4 4 4 3 3 4 4 3 3 3 3 4 4 3 3 4 4 5 4 5 5 3 4 5
1 2 3 5 0 1 1 0 2 3 3 4 5 4 3 3 3 6 10 9 4 8 9 11 10 11 10 11 14 10 12 12 12 12 11 11 11 10 10 10 9 8 9 8 7 8 7 8 8 8 8 5 5 6 5 5 6 7 5 3 4 4 5 4 4 3 4 4 3 4 3 3 5 5 4 4 3 3 4 4 4 4 5 4 4 4
1 1 2 3 1 3 1 6 6 3 3 4 6 6 7 4 3 2 6 8 8 8 8 8 13 12 12 11 13 13 12 12 12 11 11 11 11 12 12 11 10 11 12 11 8 8 8 8 8 8 8 8 5 5 5 6 5 6 4 4 5 5 5 4 4 3 2 3 4 4 3 4 5 5 5 4 4 3 4 3 4 4 4 5 5 5
1 1 5 2 3 3 2 2 2 2 1 3 5 4 4 5 5 5 4 6 8 7 10 11 11 11 10 10 12 15 13 11 13 12 10 10 10 10 10 10 10 8 6 8 8 9 8 8 9 8 8 8 7 6 5 5 6 5 4 4 5 5 4 4 3 3 3 4 3 4 4 4 6 5 5 5 4 5 6 5 3 4 5 6 6 5
1 2 1 1 3 1 1 1 2 3 7 6 5 3 1 4 8 7 8 10 11 13 10 7 8 12 10 11 11 14 13 10 12 13 12 9 9 9 9 9 8 9 9 9 7 8 9 8 8 8 8 7 6 6 5 6 5 4 5 5 5 5 5 3 2 2 3 3 3 3 2 3 3 3 4 5 5 4 5 5 6 5 6 6 5 5
1 2 1 3 5 0 4 4 3 5 1 1 1 0 3 3 9 10 9 11 12 13 11 12 7 4 9 14 14 13 14 11 10 12 13 11 11 10 8 8 8 8 7 7 7 8 8 8 9 8 7 5 5 6 6 5 5 4 4 5 5 5 4 3 3 2 3 3 2 2 2 2 3 3 3 4 4 5 5 4 6 6 5 6 7 7
0 4 5 4 5 1 6 6 3 2 2 2 3 2 3 4 10 12 10 11 9 10 13 14 11 9 8 7 10 13 13 13 11 10 11 10 10 11 11 11 9 7 8 8 8 6 8 7 7 7 6 5 5 6 5 5 5 4 5 5 5 6 5 5 4 3 3 2 3 3 2 2 3 4 4 4 4 4 4 6 8 6 9 10 10 11
Wind_Direction
155 176 202 206 212 168 172 187 191 195 178 200 206 239 243 227 254 279 198 181 171 142 207 205 219 239 236 200 188 174 156 189 216 227 229 224 213 203 184 179 174 154 168 141 114 108 102 95 89 91 84 83 72 59 67 74 57 49 40 58 41 11 50 115 127 116 108 109 93 69 72 76 51 63 60 49 36 42 39 36 39 41 42 44 50 46
62 352 255 221 211 174 179 190 169 125 163 178 191 214 261 193 258 203 185 161 172 163 225 185 208 245 244 220 180 161 163 200 206 217 226 223 211 204 181 174 173 152 109 118 111 106 108 104 97 96 95 110 99 59 58 65 51 47 57 64 41 35 61 62 87 106 90 79 98 109 101 92 69 56 52 48 37 40 42 43 42 43 42 46 47 43
327 236 248 191 198 126 153 175 159 166 186 203 200 206 257 260 216 313 119 158 169 155 249 166 193 237 267 295 209 185 193 201 203 206 216 215 216 206 186 174 158 135 138 131 126 126 127 122 115 102 94 76 84 74 55 54 70 58 59 58 58 50 70 66 86 85 85 84 84 96 106 97 90 62 69 65 45 45 49 43 40 41 37 42 45 39
305 264 270 193 151 122 84 137 139 145 105 129 8 334 289 217 152 272 15 141 159 166 186 186 197 283 310 276 221 224 219 221 206 211 220 206 214 214 202 164 153 148 150 155 158 162 156 144 123 113 115 110 95 83 59 62 74 76 67 62 64 57 58 69 76 90 89 91 88 81 87 80 82 83 73 68 49 42 44 37 31 34 33 39 45 39
222 205 128 89 122 111 156 270 44 31 326 299 212 245 283 260 226 148 186 116 87 26 110 101 65 328 295 272 263 222 204 217 222 219 231 225 217 150 94 136 153 158 157 160 162 162 156 143 137 138 133 115 106 85 83 74 77 83 74 66 64 56 58 57 63 83 95 93 80 77 68 63 69 50 45 49 41 36 43 45 31 22 29 39 44 40
270 258 274 338 324 107 77 338 298 137 319 329 243 224 245 284 99 95 119 123 130 340 249 146 45 282 268 256 247 226 172 210 212 196 216 216 213 171 163 156 137 137 150 161 166 164 148 141 130 121 116 118 101 93 75 76 77 78 74 74 68 64 55 56 53 63 76 73 88 76 67 61 61 56 39 44 43 41 40 35 9 34 34 39 46 42
224 313 140 192 213 338 20 219 220 138 193 28 281 199 240 126 127 131 138 108 145 196 212 194 157 264 316 260 240 227 206 222 218 206 208 208 205 196 179 156 152 146 146 147 150 146 142 150 142 123 124 127 107 91 91 81 76 76 77 74 71 72 65 56 61 58 80 76 69 77 81 82 80 87 50 50 56 70 50 46 41 33 35 38 46 44
317 317 91 81 81 278 344 291 247 162 132 227 242 146 113 114 140 165 161 169 184 128 43 145 99 186 310 263 241 206 214 232 237 225 204 206 202 196 170 153 153 155 156 154 153 148 151 160 155 143 132 124 109 102 92 83 75 77 77 73 70 67 67 58 74 68 71 87 82 80 76 71 68 75 81 61 62 49 55 49 33 36 38 40 44 44
157 324 175 250 231 188 244 205 189 146 152 225 236 185 204 170 179 169 168 152 180 114 84 215 95 65 267 265 352 130 232 243 240 214 208 206 203 180 153 150 157 160 157 154 154 151 154 164 149 133 121 110 100 95 94 93 88 85 79 77 72 64 64 59 70 78 71 82 84 84 82 75 60 75 67 65 51 50 35 54 34 40 35 42 42 43
281 202 209 186 143 229 227 216 182 154 74 277 100 69 52 64 67 101 80 59 21 86 233 206 196 177 281 292 345 23 262 259 239 201 204 202 195 165 150 148 153 152 152 153 154 150 154 154 133 121 111 102 96 95 97 92 92 82 81 76 71 62 57 58 59 65 61 62 70 72 71 82 68 66 68 59 52 43 38 51 36 35 40 34 38 37
247 350 177 107 182 209 189 219 186 186 211 101 92 61 35 40 47 41 72 84 48 10 254 178 203 158 282 258 193 165 221 222 58 128 194 197 166 156 157 158 161 159 154 150 149 145 145 133 123 120 113 106 101 101 99 93 84 80 78 81 73 60 56 53 57 62 61 59 60 70 71 76 78 70 69 66 49 44 46 47 36 39 44 42 41 35
332 330 5 241 213 225 137 257 86 151 162 162 110 127 72 23 10 41 344 31 123 263 268 221 190 164 195 290 260 216 46 92 153 176 189 195 186 172 164 164 162 157 151 147 143 142 137 126 119 117 114 116 115 109 99 89 87 81 75 81 78 59 52 55 60 67 65 67 69 74 75 72 72 76 77 75 68 50 60 49 53 47 52 41 42 35
299 262 229 312 259 179 143 164 284 23 30 109 99 40 151 271 41 339 19 240 220 210 264 106 146 85 242 227 221 310 270 264 187 192 190 194 183 172 165 161 158 153 147 151 150 145 146 140 135 127 121 121 125 105 79 70 82 80 80 80 86 71 62 58 58 65 65 70 65 70 70 76 80 78 82 81 80 58 65 56 61 56 57 45 45 30
280 285 330 280 303 198 142 162 249 279 332 131 171 154 99 128 38 205 260 257 310 293 268 12 203 213 259 294 242 273 276 274 263 268 246 193 183 167 157 152 151 149 148 151 150 150 146 140 134 129 128 127 110 96 96 103 98 98 94 93 95 94 76 69 66 67 71 64 69 73 82 83 85 83 80 72 78 66 62 57 64 65 71 66 55 45
2 340 284 176 275 210 163 172 173 195 180 205 144 145 182 148 160 249 194 198 213 193 270 299 126 232 139 242 228 247 287 287 266 231 127 121 130 127 125 136 145 148 149 149 153 154 147 140 134 134 132 122 106 105 120 126 112 114 115 110 102 93 79 79 77 77 69 67 73 72 71 74 77 78 73 74 69 59 59 44 61 59 57 65 55 48
200 220 255 218 248 156 166 206 145 112 100 247 159 92 91 230 153 230 205 154 188 146 79 170 214 191 194 187 214 51 351 0 123 120 112 109 121 129 137 150 158 156 152 149 156 151 147 136 130 131 130 119 122 133 138 123 129 127 127 117 104 98 89 80 77 66 83 78 68 67 69 65 71 74 74 66 61 59 54 53 55 58 59 60 63 50
24 289 263 302 152 186 188 151 219 129 187 246 107 204 220 166 114 82 71 14 118 45 232 169 318 291 293 332 75 37 52 42 71 103 113 127 128 135 146 155 160 158 161 158 162 154 143 132 135 136 129 134 138 140 142 141 138 134 124 110 101 90 81 80 78 81 71 78 77 68 71 72 68 67 65 65 62 57 53 52 50 58 59 63 54 47
155 245 288 85 277 265 219 180 162 208 146 81 290 242 147 100 117 130 239 345 57 191 256 45 245 303 22 274 21 48 69 117 115 109 120 125 138 146 154 161 162 166 166 160 148 147 131 133 135 128 136 136 138 144 137 131 124 120 121 120 112 104 97 91 93 86 85 91 88 82 75 64 66 72 66 62 59 52 55 50 50 58 60 49 48 45
133 297 296 242 239 281 350 117 347 300 310 180 210 174 131 271 289 326 91 292 270 282 275 319 281 263 190 254 347 280 176 189 160 141 140 148 157 158 157 160 163 159 154 157 154 136 118 128 139 135 136 125 113 110 114 107 105 109 105 100 103 105 106 105 96 92 81 87 88 82 75 72 65 62 65 63 60 55 54 50 56 63 65 60 45 37
23 163 293 290 159 322 17 110 227 270 340 33 81 55 200 114 156 134 196 175 123 237 48 292 25 257 212 216 191 218 204 190 165 165 181 171 171 163 162 167 166 163 160 151 145 119 122 143 139 135 126 112 116 119 119 112 111 107 103 102 98 94 100 108 111 108 92 84 95 89 79 67 69 65 65 61 60 55 54 57 60 67 62 51 43 30
190 122 238 278 290 343 115 161 204 174 178 28 78 298 337 359 216 107 35 82 197 169 178 188 322 275 258 213 192 215 197 183 172 169 174 181 182 173 165 158 157 156 145 142 139 120 136 116 114 117 114 124 127 133 121 111 107 103 102 105 108 115 119 108 107 100 103 100 88 86 78 72 68 66 66 66 66 68 60 64 73 67 72 58 43 20
128 136 206 310 355 267 243 245 199 183 169 164 162 199 174 122 141 178 250 19 77 106 193 143 238 268 268 173 227 276 197 147 171 168 174 180 175 169 154 144 144 131 121 136 123 108 109 109 126 115 113 117 133 125 113 105 106 102 105 112 115 109 113 117 112 110 110 95 95 89 83 72 70 73 72 72 65 68 69 74 78 91 76 63 38 40
154 163 136 257 206 226 237 252 165 155 119 154 156 230 177 157 114 123 186 231 64 59 103 144 112 277 242 294 303 248 160 165 164 167 168 168 154 140 126 128 117 107 123 115 97 102 105 115 112 112 116 133 123 112 114 116 110 111 112 113 118 125 127 122 118 116 112 105 96 88 82 85 80 74 72 70 65 66 68 74 70 61 75 61 40 23
122 99 187 289 303 291 305 290 167 190 146 79 22 83 117 179 190 180 177 175 134 161 69 11 213 252 281 352 318 229 171 151 144 154 157 150 133 121 119 120 120 112 107 94 85 95 109 112 115 114 108 99 109 117 110 107 109 110 111 115 121 126 135 131 126 118 108 99 89 91 89 82 82 74 71 71 65 63 60 65 66 58 58 33 26 26
143 271 124 317 5 335 342 345 14 341 56 85 245 265 151 108 83 122 100 54 100 211 161 128 226 280 285 19 31 67 118 126 130 111 124 139 116 112 116 110 97 81 69 89 94 113 136 125 114 115 113 106 93 95 109 113 113 116 123 132 136 136 138 127 124 112 100 102 98 82 84 81 81 83 79 81 76 71 65 63 61 60 47 19 35 16
138 182 135 165 177 142 135 3 279 284 213 241 173 7 120 145 139 134 112 162 107 224 124 138 247 255 309 50 90 88 98 95 106 123 118 121 127 117 116 99 79 92 109 108 112 117 85 80 99 105 108 108 107 110 111 111 116 127 133 133 138 137 131 127 112 111 112 102 93 91 90 94 90 89 92 90 88 91 89 76 75 67 42 39 21 10
149 160 121 155 152 187 206 212 254 123 48 175 318 68 1 37 337 94 98 103 189 177 186 230 184 188 236 167 148 140 136 133 135 139 133 134 131 109 104 107 117 127 121 115 110 101 96 101 110 110 109 109 113 111 107 112 120 124 133 138 137 133 128 129 121 110 104 97 107 110 101 97 98 97 91 92 99 115 111 73 58 59 39 21 25 8
89 68 255 140 160 204 210 207 238 128 151 62 47 341 19 52 274 119 133 206 156 109 280 264 182 158 208 170 167 153 145 136 141 138 145 148 141 128 118 117 124 119 111 110 111 109 112 115 111 109 110 111 113 118 124 126 131 138 145 138 128 125 127 128 110 106 108 121 119 107 97 86 81 83 89 78 75 60 39 64 64 44 31 62 27 0
137 141 209 99 360 340 51 268 264 83 89 116 84 26 21 336 58 106 46 114 103 123 190 234 173 161 354 160 157 159 157 155 148 144 146 148 125 119 123 121 121 118 111 110 109 111 116 120 116 113 115 116 117 117 118 123 128 131 123 120 126 129 133 126 116 118 124 121 113 114 110 101 80 65 75 66 63 52 37 34 39 69 73 38 18 357
90 21 312 85 82 22 360 12 324 125 104 46 25 28 5 75 81 107 115 81 89 91 258 190 109 80 290 139 162 159 146 143 141 141 143 135 131 128 125 126 120 119 115 115 112 112 115 117 119 121 118 119 121 126 129 132 130 132 128 126 124 121 127 121 122 125 124 119 132 130 109 107 97 89 87 64 32 19 33 33 16 19 21 38 354 352
100 310 42 46 61 352 360 7 19 19 99 87 29 42 39 53 65 44 75 25 78 60 34 87 90 49 321 139 122 114 115 128 139 152 149 134 130 128 124 129 123 124 123 122 121 120 119 121 121 120 121 126 132 132 130 129 123 118 120 128 129 130 137 134 134 130 133 152 164 138 99 100 96 88 75 30 6 354 29 25 11 5 2 353 351 356
68 165 50 77 73 338 349 19 355 49 65 81 45 19 22 26 50 349 43 338 81 124 104 82 70 231 150 117 113 121 134 146 152 150 139 134 134 132 132 129 129 127 128 131 127 125 126 129 132 132 134 135 136 137 135 128 124 125 137 140 132 129 129 129 132 146 163 160 158 143 130 105 88 88 54 35 14 4 9 37 22 6 358 1 356 345
87 128 99 87 80 287 293 36 355 6 47 26 339 315 323 75 141 148 341 32 107 150 104 108 235 199 154 147 130 144 147 148 151 153 141 141 141 139 138 138 135 133 133 136 137 133 137 141 143 134 134 140 145 139 137 134 133 143 146 137 135 121 113 114 121 123 133 149 163 160 154 126 107 84 58 23 360 353 30 18 24 4 3 352 324 350
80 105 135 150 113 215 322 349 2 53 55 223 233 248 193 315 155 122 72 8 335 63 199 189 164 142 149 159 152 163 161 160 152 140 133 144 146 144 137 135 137 136 135 134 136 134 136 136 135 137 145 152 146 129 131 134 136 138 131 122 111 115 122 120 106 107 96 76 117 167 179 142 141 165 346 11 37 47 36 36 15 323 297 317 351 352
107 89 121 165 109 176 355 19 41 211 234 248 297 287 219 175 114 114 102 106 324 47 72 85 127 149 151 111 124 125 117 122 122 136 134 145 143 132 131 135 138 138 132 133 128 134 140 140 135 135 149 147 128 120 110 108 115 114 101 112 109 120 125 118 113 94 113 107 81 104 142 150 173 149 81 55 62 69 56 6 344 341 314 301 311 301
141 120 155 39 92 71 58 41 141 239 247 287 306 346 109 104 113 93 61 347 233 205 169 129 143 120 112 111 108 111 119 116 98 58 119 137 136 132 134 139 138 137 139 143 136 142 142 145 147 155 159 134 117 117 126 134 133 114 105 90 123 125 115 110 97 105 112 109 116 121 137 154 144 93 66 59 52 67 352 331 304 305 314 331 332 300
142 114 110 93 326 143 170 144 222 294 325 297 349 240 184 152 182 162 183 250 212 181 170 137 130 119 109 115 115 115 115 108 98 64 56 114 121 130 132 129 133 134 138 140 143 145 148 148 147 150 131 121 123 126 137 137 124 116 113 113 112 115 109 103 118 150 158 161 211 173 128 90 120 112 99 97 84 321 311 316 324 317 313 330 316 309
42 136 203 112 246 125 134 47 6 20 278 269 236 267 203 164 147 174 108 273 225 160 159 143 141 133 124 124 125 126 120 103 115 109 100 105 105 102 105 116 124 131 132 131 134 138 144 147 144 134 125 126 130 140 140 138 128 123 121 123 120 119 118 131 175 190 147 171 248 180 115 107 124 147 159 154 204 244 269 277 269 263 298 321 318 315
32 83 119 117 143 83 73 130 196 166 242 210 226 225 235 186 131 131 59 301 254 156 161 146 138 144 142 141 138 140 123 144 171 142 138 118 113 112 119 126 129 132 138 139 139 142 143 144 138 123 117 125 130 150 142 135 130 125 132 140 144 142 152 190 203 204 197 217 230 229 151 150 147 190 201 229 257 242 272 279 270 293 328 307 285 286
33 0 40 63 112 165 139 124 211 205 174 354 243 267 226 143 104 62 37 288 231 165 152 153 147 149 146 144 145 153 153 158 188 169 145 138 133 132 142 137 132 133 134 130 129 134 138 129 114 116 134 145 151 151 142 135 134 136 140 160 145 158 185 201 209 212 212 229 210 194 192 168 188 213 224 241 274 265 261 267 289 290 309 313 326 305
346 349 45 160 151 140 117 249 326 301 268 249 241 223 158 132 76 86 171 244 180 155 157 156 154 149 148 148 164 158 194 177 130 127 130 124 120 114 116 127 137 138 137 142 139 145 139 137 139 149 156 150 147 144 144 142 135 141 147 154 160 186 206 206 209 196 186 160 109 21 325 270 202 217 237 239 250 267 283 265 271 293 297 296 310 324
7 90 94 85 99 144 178 123 205 234 237 178 310 160 188 94 87 210 239 231 149 148 147 147 146 158 157 154 131 65 109 106 115 117 119 123 119 117 121 124 124 120 131 135 141 138 134 129 129 125 120 137 144 147 149 148 143 146 153 150 185 214 207 175 195 171 148 148 119 303 279 282 290 238 256 266 251 293 301 306 301 271 286 293 301 308
202 110 203 150 179 63 47 77 26 128 247 147 135 74 74 111 223 208 133 50 131 137 135 142 147 149 141 110 93 115 113 113 122 123 124 124 122 127 132 136 142 144 145 141 135 138 134 131 140 148 147 147 147 151 158 147 146 154 157 169 211 212 181 190 172 166 158 159 190 219 243 265 273 276 275 282 269 256 277 296 310 296 289 283 293 292
207 86 274 262 189 137 118 134 191 215 231 299 77 162 227 200 179 157 130 98 104 128 132 126 137 145 138 125 126 123 126 123 112 115 121 127 129 130 135 135 135 137 135 133 136 141 132 134 139 140 142 143 151 155 160 152 151 159 159 205 216 174 181 160 152 146 168 201 203 212 233 240 258 262 268 273 267 227 264 292 295 294 280 270 268 279
207 176 180 155 219 119 187 213 252 246 244 277 145 196 252 12 124 144 120 139 139 132 126 126 131 122 126 125 125 130 131 132 131 140 139 142 140 141 143 145 146 145 142 138 142 141 137 142 146 141 140 152 158 167 164 166 152 165 179 222 185 178 159 158 154 177 206 235 251 261 264 292 272 281 286 284 289 300 292 293 296 303 292 282 268 262
255 185 167 92 132 251 170 146 268 4 354 12 52 72 85 75 65 112 121 118 122 137 149 141 136 129 132 132 125 136 137 140 131 137 133 134 133 133 130 129 126 122 120 123 129 137 132 130 133 142 148 167 173 169 171 177 161 162 204 199 181 160 150 147 170 199 224 240 256 257 278 309 300 292 279 285 259 251 253 257 279 279 289 282 262 256
269 141 64 90 345 66 18 336 16 335 343 20 59 50 51 42 56 84 119 121 129 123 112 131 138 141 142 141 133 136 134 138 132 133 134 132 138 143 146 146 146 147 147 146 148 132 130 133 140 150 156 167 189 181 184 176 187 188 188 183 177 152 152 158 180 205 226 247 258 273 258 257 274 288 297 296 293 268 255 249 253 264 279 283 282 279
353 128 78 94 68 104 198 265 299 267 168 78 65 73 87 78 60 46 67 105 109 109 124 129 122 122 132 128 137 135 137 140 137 139 140 142 142 145 146 149 145 138 136 139 144 141 138 145 153 160 163 174 183 188 183 186 198 210 203 181 163 151 157 164 175 199 232 251 269 271 253 248 265 271 282 288 291 295 297 287 250 251 264 276 273 264
225 30 149 152 92 311 317 303 295 24 33 17 22 44 25 133 110 92 99 105 109 110 111 111 135 144 140 135 137 134 135 145 145 142 139 138 141 147 152 151 154 150 144 144 149 147 153 157 160 167 170 178 179 177 185 197 212 215 186 180 161 154 155 175 211 183 230 276 253 256 238 222 247 259 273 288 295 267 238 260 287 272 279 263 224 234
64 62 163 68 66 15 184 204 180 100 230 247 279 177 134 149 117 113 110 111 119 122 127 120 98 101 131 141 144 141 138 142 146 143 144 152 155 153 149 152 151 145 148 146 147 154 154 163 161 168 179 179 172 176 185 201 217 216 185 172 162 155 159 167 135 124 249 234 233 247 249 240 252 267 274 273 286 311 314 244 232 243 254 279 289 266
129 193 147 150 154 205 229 212 167 140 129 217 178 122 150 161 132 129 136 131 130 134 135 127 121 113 126 134 145 140 142 147 152 148 141 150 159 163 162 155 149 151 153 150 144 155 162 168 171 166 179 181 177 181 187 203 217 200 180 171 167 166 172 159 164 206 255 239 229 229 217 224 266 270 269 270 277 284 282 307 312 271 239 250 268 280